| time (UTC) | temp F | wind direction | speed MPH | gust MPH | rain 1hr in | rain 24hr in | rain mn in | humidity % | barometer mb |
| 20260506072930 | 69 | 171 | 5.0 | 15.0 | 0.00 | 0.00 | 0.00 | 62 | 1008.1 |
| 20260506071915 | 70 | 171 | 6.0 | 15.0 | 0.00 | 0.00 | 0.00 | 61 | 1008.1 |
| 20260506070853 | 70 | 234 | 5.0 | 10.0 | 0.00 | 0.00 | 0.00 | 60 | 1008.4 |
| 20260506061902 | 72 | 217 | 4.0 | 17.0 | 0.00 | 0.00 | 0.00 | 55 | 1008.6 |
| 20260506060848 | 72 | 190 | 5.0 | 17.0 | 0.00 | 0.00 | 0.00 | 55 | 1008.6 |
| 20260506050841 | 73 | 234 | 6.0 | 13.0 | 0.00 | 0.00 | 0.00 | 52 | 1009.0 |
| 20260506044828 | 73 | 172 | 6.0 | 14.0 | 0.00 | 0.00 | 0.00 | 52 | 1009.1 |
| 20260506042733 | 73 | 180 | 5.0 | 15.0 | 0.00 | 0.00 | 0.00 | 51 | 1009.1 |
| 20260506041736 | 73 | 217 | 7.0 | 14.0 | 0.00 | 0.00 | 0.00 | 51 | 1009.2 |
| 20260506035608 | 73 | 127 | 4.0 | 12.0 | 0.00 | 0.00 | 0.00 | 50 | 1009.2 |
| 20260506034607 | 73 | 229 | 5.0 | 14.0 | 0.00 | 0.00 | 0.00 | 50 | 1009.2 |
| 20260506033619 | 73 | 155 | 4.0 | 14.0 | 0.00 | 0.00 | 0.00 | 49 | 1009.1 |
| 20260506032610 | 73 | 167 | 4.0 | 12.0 | 0.00 | 0.00 | 0.00 | 49 | 1009.2 |
| 20260506031620 | 73 | 260 | 5.0 | 17.0 | 0.00 | 0.00 | 0.00 | 47 | 1009.2 |
| 20260506030612 | 74 | 173 | 4.0 | 17.0 | 0.00 | 0.00 | 0.00 | 47 | 1009.1 |
| 20260506024456 | 74 | 160 | 6.0 | 13.0 | 0.00 | 0.00 | 0.00 | 45 | 1009.1 |
| 20260506023424 | 75 | 188 | 4.0 | 13.0 | 0.00 | 0.00 | 0.00 | 44 | 1009.2 |
| 20260506022358 | 75 | 169 | 4.0 | 11.0 | 0.00 | 0.00 | 0.00 | 43 | 1009.3 |
| 20260506021324 | 75 | 208 | 4.0 | 10.0 | 0.00 | 0.00 | 0.00 | 42 | 1009.3 |
| 20260506020258 | 76 | 204 | 5.0 | 10.0 | 0.00 | 0.00 | 0.00 | 42 | 1009.1 |
| 20260506012939 | 76 | 191 | 4.0 | 12.0 | 0.00 | 0.00 | 0.00 | 39 | 1008.8 |
| 20260506011908 | 77 | 136 | 5.0 | 13.0 | 0.00 | 0.00 | 0.00 | 38 | 1008.7 |
| 20260506010927 | 77 | 220 | 4.0 | 13.0 | 0.00 | 0.00 | 0.00 | 37 | 1008.6 |
| 20260506005902 | 78 | 159 | 4.0 | 11.0 | 0.00 | 0.00 | 0.00 | 35 | 1008.4 |
| 20260506004922 | 78 | 223 | 3.0 | 10.0 | 0.00 | 0.00 | 0.00 | 34 | 1008.3 |
| 20260506003852 | 78 | 211 | 3.0 | 14.0 | 0.00 | 0.00 | 0.00 | 33 | 1008.1 |
| 20260506002823 | 79 | 180 | 4.0 | 12.0 | 0.00 | 0.00 | 0.00 | 32 | 1008.2 |
| 20260506001838 | 79 | 261 | 4.0 | 11.0 | 0.00 | 0.00 | 0.00 | 31 | 1008.2 |
| 20260506000817 | 79 | 196 | 4.0 | 13.0 | 0.00 | 0.00 | 0.00 | 30 | 1008.0 |
| 20260505235743 | 80 | 219 | 4.0 | 15.0 | 0.00 | 0.00 | 0.00 | 30 | 1007.9 |
| 20260505234728 | 80 | 169 | 5.0 | 15.0 | 0.00 | 0.00 | 0.00 | 30 | 1008.0 |
| 20260505233735 | 81 | 252 | 3.0 | 14.0 | 0.00 | 0.00 | 0.00 | 30 | 1007.8 |
| 20260505232707 | 81 | 224 | 5.0 | 14.0 | 0.00 | 0.00 | 0.00 | 30 | 1007.8 |
| 20260505231714 | 81 | 236 | 4.0 | 12.0 | 0.00 | 0.00 | 0.00 | 29 | 1007.8 |
| 20260505225547 | 82 | 225 | 5.0 | 15.0 | 0.00 | 0.00 | 0.00 | 27 | 1007.9 |
| 20260505224531 | 82 | 324 | 4.0 | 15.0 | 0.00 | 0.00 | 0.00 | 26 | 1007.8 |
| 20260505223459 | 82 | 252 | 5.0 | 15.0 | 0.00 | 0.00 | 0.00 | 26 | 1008.0 |
| 20260505221326 | 83 | 241 | 5.0 | 21.0 | 0.00 | 0.00 | 0.00 | 27 | 1007.8 |
| 20260505220341 | 83 | 249 | 8.0 | 21.0 | 0.00 | 0.00 | 0.00 | 26 | 1007.8 |
| 20260505215404 | 84 | 220 | 5.0 | 17.0 | 0.00 | 0.00 | 0.00 | 26 | 1007.8 |
| 20260505214405 | 84 | 255 | 5.0 | 17.0 | 0.00 | 0.00 | 0.00 | 26 | 1007.8 |
| 20260505213352 | 84 | 235 | 5.0 | 15.0 | 0.00 | 0.00 | 0.00 | 26 | 1007.6 |
| 20260505211143 | 84 | 307 | 3.0 | 12.0 | 0.00 | 0.00 | 0.00 | 27 | 1007.6 |
| 20260505205028 | 84 | 174 | 7.0 | 21.0 | 0.00 | 0.00 | 0.00 | 27 | 1007.6 |
| 20260505204043 | 85 | 317 | 7.0 | 20.0 | 0.00 | 0.00 | 0.00 | 27 | 1007.6 |
| 20260505203101 | 85 | 214 | 7.0 | 20.0 | 0.00 | 0.00 | 0.00 | 26 | 1007.7 |
| 20260505202041 | 86 | 42 | 5.0 | 21.0 | 0.00 | 0.00 | 0.00 | 26 | 1007.5 |
| 20260505201059 | 86 | 205 | 7.0 | 21.0 | 0.00 | 0.00 | 0.00 | 27 | 1007.6 |
| 20260505200109 | 85 | 182 | 8.0 | 21.0 | 0.00 | 0.00 | 0.00 | 27 | 1007.7 |
| 20260505195126 | 86 | 209 | 5.0 | 18.0 | 0.00 | 0.00 | 0.00 | 28 | 1007.8 |
| 20260505194136 | 86 | 199 | 6.0 | 22.0 | 0.00 | 0.00 | 0.00 | 29 | 1007.9 |
| 20260505193154 | 85 | 179 | 6.0 | 22.0 | 0.00 | 0.00 | 0.00 | 29 | 1008.0 |
| 20260505192158 | 86 | 201 | 7.0 | 20.0 | 0.00 | 0.00 | 0.00 | 28 | 1008.1 |
| 20260505190048 | 86 | 224 | 6.0 | 20.0 | 0.00 | 0.00 | 0.00 | 26 | 1008.4 |
| 20260505185025 | 85 | 274 | 6.0 | 18.0 | 0.00 | 0.00 | 0.00 | 28 | 1008.6 |
| 20260505184034 | 85 | 161 | 7.0 | 19.0 | 0.00 | 0.00 | 0.00 | 29 | 1008.8 |
| 20260505180756 | 86 | 180 | 5.0 | 20.0 | 0.00 | 0.00 | 0.00 | 30 | 1009.2 |
| 20260505175744 | 86 | 221 | 6.0 | 20.0 | 0.00 | 0.00 | 0.00 | 28 | 1009.3 |
| 20260505173633 | 86 | 201 | 6.0 | 19.0 | 0.00 | 0.00 | 0.00 | 30 | 1009.5 |
| 20260505171459 | 85 | 212 | 5.0 | 14.0 | 0.00 | 0.00 | 0.00 | 29 | 1009.6 |
| 20260505170520 | 84 | 263 | 5.0 | 14.0 | 0.00 | 0.00 | 0.00 | 31 | 1009.7 |
| 20260505165535 | 83 | 255 | 4.0 | 13.0 | 0.00 | 0.00 | 0.00 | 36 | 1009.8 |
| 20260505164539 | 83 | 228 | 4.0 | 13.0 | 0.00 | 0.00 | 0.00 | 36 | 1009.9 |
| 20260505163532 | 81 | 260 | 5.0 | 11.0 | 0.00 | 0.00 | 0.00 | 39 | 1010.1 |
| 20260505162530 | 82 | 229 | 4.0 | 12.0 | 0.00 | 0.00 | 0.00 | 38 | 1010.3 |
| 20260505161533 | 81 | 198 | 4.0 | 12.0 | 0.00 | 0.00 | 0.00 | 40 | 1010.6 |
| 20260505160517 | 81 | 194 | 4.0 | 11.0 | 0.00 | 0.00 | 0.00 | 39 | 1010.6 |
| 20260505152333 | 80 | 257 | 3.0 | 10.0 | 0.00 | 0.00 | 0.00 | 42 | 1011.0 |
| 20260505150212 | 78 | 200 | 5.0 | 11.0 | 0.00 | 0.00 | 0.00 | 42 | 1010.9 |
| 20260505124526 | 71 | 279 | 3.0 | 8.0 | 0.00 | 0.00 | 0.00 | 47 | 1011.2 |
| 20260505123509 | 69 | 215 | 3.0 | 9.0 | 0.00 | 0.00 | 0.00 | 48 | 1011.2 |
| 20260505122437 | 69 | 227 | 3.0 | 9.0 | 0.00 | 0.00 | 0.00 | 48 | 1011.3 |
| 20260505121404 | 68 | 259 | 3.0 | 8.0 | 0.00 | 0.00 | 0.00 | 50 | 1011.3 |
| 20260505120410 | 67 | 235 | 2.0 | 8.0 | 0.00 | 0.00 | 0.00 | 51 | 1011.1 |
| 20260505115348 | 65 | 226 | 1.0 | 6.0 | 0.00 | 0.00 | 0.00 | 54 | 1011.0 |
| 20260505113154 | 63 | 189 | 2.0 | 6.0 | 0.00 | 0.00 | 0.00 | 56 | 1010.8 |
| 20260505110944 | 62 | 235 | 1.0 | 10.0 | 0.00 | 0.00 | 0.00 | 57 | 1010.6 |
| 20260505101832 | 61 | 214 | 2.0 | 9.0 | 0.00 | 0.00 | 0.00 | 58 | 1010.1 |
| 20260505100854 | 61 | 188 | 2.0 | 9.0 | 0.00 | 0.00 | 0.00 | 59 | 1010.1 |
| 20260505095846 | 61 | 169 | 3.0 | 9.0 | 0.00 | 0.00 | 0.00 | 58 | 1010.1 |
| 20260505094831 | 62 | 213 | 3.0 | 8.0 | 0.00 | 0.00 | 0.00 | 58 | 1010.0 |
| 20260505093801 | 62 | 189 | 2.0 | 7.0 | 0.00 | 0.00 | 0.00 | 58 | 1009.9 |
| 20260505091601 | 62 | 173 | 3.0 | 8.0 | 0.00 | 0.00 | 0.00 | 58 | 1009.7 |
| 20260505090548 | 62 | 149 | 3.0 | 8.0 | 0.00 | 0.00 | 0.00 | 58 | 1009.6 |
| 20260505085523 | 62 | 234 | 2.0 | 9.0 | 0.00 | 0.00 | 0.00 | 58 | 1009.7 |
| 20260505084513 | 62 | 167 | 3.0 | 9.0 | 0.00 | 0.00 | 0.00 | 59 | 1009.7 |
| 20260505083501 | 62 | 161 | 3.0 | 9.0 | 0.00 | 0.00 | 0.00 | 60 | 1009.7 |
| 20260505081254 | 62 | 178 | 4.0 | 9.0 | 0.00 | 0.00 | 0.00 | 61 | 1009.7 |
| 20260505080237 | 62 | 163 | 3.0 | 9.0 | 0.00 | 0.00 | 0.00 | 61 | 1009.7 |
| 20260505075215 | 62 | 161 | 3.0 | 8.0 | 0.00 | 0.00 | 0.00 | 61 | 1009.6 |